MMS 4

Last updated on Thu Nov 21 2024 00:02:35 GMT+0000 (Coordinated Universal Time)

1 40485U 15011D 24325.58335648 -.00000613 00000+0 00000+0 0 9996 2 40485 56.6803 2.0877 8943450 153.8617 292.3977 0.28456461 1364
UTC large
Height (km)
Speed (km/s)
/
Latitude / Longitude
Inclination (degrees)
Orbital Period (minutes)
Azimuth
Elevation
Range (km)
Doppler Factor

Next 0 passes for location: London (51.5072 / 0.1276)

Sorry there are no passes over London.